Presure
205 202 200 189 193 152 150 133 156 150 200 131 133 126 112 107 114 117 116 128 121 122 123 118 145 138 143 225 178 144 147 177 155 168 483 481 501 466 399 372 365 357 335 307 324 288 296
283 244 194 216 215 168 202 162 140 126 144 131 140 148 129 124 111 113 134 141 127 161 125 133 139 127 168 134 173 125 178 155 155 167 497 475 462 496 398 367 370 360 339 316 326 287 286
254 282 291 253 166 219 171 141 172 215 133 204 140 144 133 143 111 118 128 110 125 123 128 145 125 155 241 181 161 174 149 176 164 371 444 434 447 468 416 367 365 351 336 307 319 264 316
231 263 227 262 275 265 227 250 135 153 152 150 140 141 130 128 110 108 142 132 137 124 136 140 137 246 143 150 132 149 150 169 325 441 413 415 416 438 423 369 362 342 310 292 293 287 298
244 254 247 262 263 262 221 198 180 230 210 142 194 136 140 112 111 114 143 126 127 118 127 150 160 211 158 149 171 173 166 454 428 417 404 417 417 419 488 361 362 337 306 298 279 268 261
247 241 256 240 275 237 273 258 282 184 172 252 133 195 134 134 120 118 142 121 125 165 129 134 134 139 161 181 143 165 450 428 282 401 396 401 385 408 439 358 364 345 324 318 287 274 278
254 273 249 223 348 324 230 281 211 216 248 161 144 141 140 142 123 142 136 127 139 148 139 147 169 191 141 176 157 149 159 367 271 420 394 392 385 375 422 359 360 327 300 294 291 282 260
238 290 250 259 365 238 297 338 178 241 143 255 162 133 146 133 132 142 129 133 146 129 118 131 166 171 154 134 137 157 168 249 392 365 364 360 358 383 395 352 355 323 318 297 272 280 291
370 351 405 241 258 243 285 327 318 269 229 255 227 135 165 133 143 144 130 130 129 127 141 185 235 173 168 140 132 167 394 413 353 368 374 356 373 388 418 347 347 326 315 283 274 259 256
432 433 455 471 384 326 250 269 260 208 276 298 255 134 149 134 141 163 129 138 131 123 147 180 169 162 166 155 134 239 178 362 368 361 342 388 341 325 461 324 339 321 313 289 268 265 268
452 462 463 484 504 318 253 324 319 171 266 175 157 171 142 212 203 127 127 150 133 125 147 231 246 166 133 146 147 294 330 335 361 341 334 337 331 316 348 326 329 312 307 315 281 271 269
473 476 521 533 575 277 302 329 309 248 246 284 199 216 138 195 176 123 127 137 135 148 178 146 151 144 146 147 135 141 337 341 326 335 308 318 319 321 306 366 322 307 304 289 282 291 273
468 488 481 505 561 253 322 254 253 266 240 243 184 212 149 205 131 126 148 117 123 143 145 181 142 171 152 153 151 121 133 139 330 357 340 331 323 305 378 380 320 290 300 290 282 284 317
477 459 474 535 534 279 142 324 242 291 260 240 149 226 117 222 126 136 133 139 134 150 201 156 141 170 134 125 139 130 137 277 137 139 328 328 334 331 327 333 327 312 285 276 281 279 274
433 435 444 495 257 370 275 327 307 265 244 148 237 154 199 126 133 130 142 157 150 158 182 158 153 174 151 111 108 184 185 144 130 143 297 327 314 315 310 328 320 308 311 292 283 279 279
416 417 446 471 356 355 257 283 289 248 240 151 155 203 144 124 189 125 128 141 139 174 172 155 198 171 182 153 156 117 139 141 270 146 138 321 328 321 308 323 344 343 297 285 293 278 271
400 428 445 342 356 275 253 285 259 236 165 211 195 135 125 128 135 178 121 147 136 159 152 156 194 163 163 160 134 236 120 122 265 139 155 321 322 323 333 360 335 340 335 310 315 300 303
401 325 337 271 281 287 253 258 237 235 205 156 189 213 126 124 142 151 129 143 145 189 228 168 149 134 165 168 149 134 150 134 342 140 320 136 237 313 320 332 341 318 326 311 293 290 295
399 298 343 359 282 263 254 252 224 192 234 181 133 184 128 133 140 146 155 133 140 226 150 169 194 152 159 124 165 164 172 140 125 152 187 141 249 334 368 325 325 321 333 310 313 308 308
266 346 324 285 300 278 192 209 209 201 162 189 219 186 119 151 134 143 139 135 127 231 155 216 124 158 172 157 159 147 172 164 165 160 125 260 348 142 343 332 340 337 335 322 313 314 301
297 261 296 277 263 252 232 241 225 197 125 154 130 136 129 208 151 133 138 153 136 202 219 142 152 131 189 192 185 143 154 163 113 146 151 131 147 243 300 325 344 336 172 330 334 335 328
271 281 279 258 252 231 241 215 226 194 190 188 132 135 133 141 147 142 140 149 139 180 218 134 176 157 156 205 199 190 153 143 150 148 135 149 179 241 251 275 140 326 340 330 327 318 317
279 227 281 273 237 240 152 226 184 183 200 223 130 197 218 160 131 178 141 138 218 232 121 133 188 190 191 151 159 148 126 139 163 132 190 160 160 185 221 215 257 191 170 236 190 332 307
242 243 260 239 243 242 222 234 209 187 224 217 186 125 181 132 135 205 140 186 226 211 215 206 199 163 176 161 194 183 120 137 172 143 163 163 212 218 181 243 251 198 259 247 303 126 342
279 281 218 243 241 228 227 225 205 179 225 201 197 135 208 214 215 147 138 229 230 187 142 139 185 161 183 144 148 186 159 126 153 196 131 131 186 165 176 228 231 156 151 222 278 309 278
241 245 255 190 240 223 231 222 201 175 219 196 217 212 214 216 231 140 208 223 231 151 145 200 118 193 181 184 182 172 153 139 129 164 177 109 166 156 235 209 247 208 157 242 158 279 117
244 200 253 223 230 227 173 212 191 172 190 189 211 208 213 195 209 140 223 221 207 153 167 207 203 187 144 150 157 157 168 179 142 132 151 193 171 164 190 225 139 190 237 126 250 250 292
255 253 161 204 229 247 236 210 199 200 213 189 213 208 194 230 135 225 220 213 165 231 213 216 142 197 124 144 184 183 181 169 184 165 161 160 152 140 233 237 230 221 177 241 237 254 264
264 267 239 232 221 193 215 183 185 224 202 205 213 216 203 228 208 225 222 221 229 181 218 134 141 194 149 143 194 192 133 171 173 151 143 145 175 209 139 130 231 183 238 249 241 249 264
Wind_Speed
118 113 113 105 103 69 65 60 68 58 78 47 44 36 27 24 22 20 19 27 28 29 32 26 48 37 37 59 46 36 30 57 43 58 33 38 45 68 78 73 76 79 89 97 90 100 100
100 103 109 114 116 87 107 71 62 49 57 48 51 51 34 27 21 20 34 39 28 43 36 32 42 22 55 23 45 46 61 36 42 57 18 25 39 47 81 75 76 76 85 93 82 92 101
70 90 88 71 69 110 83 60 64 98 51 79 50 50 37 43 21 20 26 18 29 25 37 46 17 49 61 46 43 56 36 56 57 22 20 17 23 39 78 73 74 78 84 85 88 93 73
68 85 66 74 79 67 68 90 56 62 58 57 48 47 34 30 19 18 37 26 32 34 39 44 36 63 24 34 42 47 36 57 28 12 23 28 33 33 72 73 75 83 94 95 79 82 69
78 90 73 85 71 76 92 74 61 63 76 54 53 40 43 19 19 20 35 28 26 33 29 50 51 56 49 26 51 53 51 11 10 13 12 15 25 36 39 71 78 89 97 96 94 94 103
99 71 94 69 79 61 67 68 70 59 58 56 40 50 35 34 20 21 29 27 24 40 37 31 26 26 49 49 33 46 7 8 14 15 14 24 29 33 41 71 78 84 90 93 92 88 85
104 100 78 78 66 69 80 56 64 58 66 54 48 43 39 39 22 34 24 23 20 22 43 45 37 34 12 52 38 31 38 6 13 23 36 36 36 40 37 67 71 79 87 88 89 89 93
71 92 80 66 63 64 72 61 56 50 53 46 48 32 37 27 26 28 25 18 31 34 15 16 50 37 43 18 21 38 46 15 32 30 29 31 30 26 56 64 69 82 92 87 84 71 59
95 70 87 79 47 74 69 60 62 49 58 44 45 33 35 25 34 31 21 16 25 33 43 36 61 44 46 28 19 47 25 17 20 24 30 23 20 19 45 56 66 78 81 89 93 94 93
79 75 75 74 76 69 69 57 54 54 46 36 30 30 37 24 23 35 15 16 23 30 43 33 40 46 40 25 17 37 36 32 24 40 28 35 42 35 34 51 60 75 82 93 94 85 90
82 71 67 68 71 73 51 62 56 34 42 38 34 42 30 50 39 20 12 20 23 29 41 37 56 39 20 15 22 26 33 35 38 40 39 37 39 41 25 52 65 72 78 85 90 88 92
62 62 52 45 44 61 50 60 51 46 46 31 32 47 25 45 38 16 13 17 21 20 24 39 39 25 13 26 18 28 29 30 31 34 23 31 43 36 43 38 67 71 76 81 84 89 94
52 38 32 31 33 53 58 52 62 52 52 48 46 35 29 49 18 14 16 8 21 21 28 35 29 32 39 24 36 17 26 31 35 30 27 21 25 24 19 28 66 66 74 80 82 79 69
15 19 21 27 28 56 30 52 51 47 56 49 25 39 24 29 17 5 17 11 18 15 25 25 32 27 3 21 29 8 23 30 29 32 23 16 14 17 25 40 59 73 69 68 75 73 72
9 13 9 2 66 76 70 58 54 64 59 24 40 26 38 21 9 14 13 25 24 9 16 23 26 26 32 17 13 22 38 26 14 36 25 17 15 18 27 37 50 61 73 74 74 72 69
5 9 8 22 63 73 63 54 60 66 57 26 31 43 23 20 27 15 13 10 15 16 28 20 30 17 21 19 24 14 5 30 28 35 26 18 15 12 22 30 49 63 59 58 67 65 63
7 15 20 73 67 77 67 70 71 67 43 47 39 23 23 16 9 17 8 9 17 9 19 15 28 18 22 29 12 21 6 12 22 28 45 16 13 12 15 36 35 46 68 63 67 68 67
14 55 49 59 74 78 68 76 71 62 47 29 35 35 24 19 12 15 12 8 10 15 27 13 25 21 18 11 34 21 35 18 23 27 19 24 16 8 8 20 30 32 46 54 51 54 61
19 76 49 70 81 69 76 75 60 56 55 37 27 28 21 15 10 10 12 13 12 18 16 12 19 21 26 6 14 13 20 27 13 41 33 12 27 15 10 11 18 23 40 43 52 56 60
35 57 71 82 75 74 54 55 51 47 40 33 40 30 19 22 14 12 12 13 11 12 12 23 7 12 9 8 15 29 15 23 22 28 13 61 16 45 7 3 9 21 29 36 41 50 48
73 50 78 81 77 80 76 66 65 40 31 30 27 20 19 21 13 16 12 8 15 9 14 20 22 24 15 23 24 29 14 30 19 29 22 32 41 52 65 35 6 8 7 22 28 34 41
65 80 77 73 85 81 72 69 64 41 33 28 26 21 18 13 10 15 12 7 16 7 10 18 13 23 9 30 26 23 16 35 18 30 38 36 30 47 48 68 27 10 14 20 27 29 34
74 29 81 77 79 77 37 70 31 47 39 45 29 29 26 15 17 12 11 13 7 2 9 17 16 21 22 17 12 21 4 28 11 26 24 32 21 43 37 39 49 37 32 20 14 30 32
26 31 79 54 81 77 70 68 57 24 49 41 24 22 21 19 20 14 12 11 7 4 5 12 13 16 17 13 30 24 8 33 17 30 10 25 43 45 40 47 58 28 54 46 42 8 28
72 82 21 76 79 75 69 66 46 24 47 33 28 23 22 19 16 17 15 9 6 4 11 12 11 15 23 17 15 31 11 12 18 33 33 32 30 32 41 48 48 30 35 53 64 43 28
34 37 72 47 77 64 71 63 42 35 44 26 32 26 22 20 18 18 14 11 7 14 13 7 10 16 18 23 27 24 20 29 20 21 30 13 23 19 46 52 56 45 42 56 27 79 16
34 31 75 65 73 68 30 50 26 32 39 23 29 25 22 18 20 18 14 11 11 15 6 9 10 14 20 21 21 18 21 34 23 7 15 37 35 29 39 49 39 47 60 29 73 69 70
52 57 28 52 65 64 57 48 34 26 35 22 27 24 24 24 19 20 15 11 16 11 9 3 19 12 15 22 26 31 33 28 42 17 17 32 15 34 55 52 56 60 52 71 68 82 83
62 72 69 71 50 37 53 17 15 41 30 26 27 26 28 26 23 24 19 15 14 16 12 19 19 14 22 23 24 28 22 37 39 30 21 26 39 45 41 45 57 54 69 81 72 86 91
Wind_Direction
272 272 272 272 273 260 264 256 266 255 274 257 258 257 246 256 264 274 289 300 296 287 297 286 296 309 299 312 291 278 299 301 308 309 254 239 231 218 206 205 203 199 196 201 199 204 205
283 284 272 268 272 263 271 265 254 259 254 257 258 262 256 258 263 275 285 287 292 297 295 297 295 293 298 275 288 269 301 311 307 307 257 234 221 218 203 202 199 193 195 200 195 201 206
300 287 289 274 255 267 262 249 250 270 258 272 257 260 260 264 263 281 293 293 292 279 295 296 305 303 320 301 297 306 309 310 313 281 192 202 211 207 200 199 193 188 188 192 195 200 213
277 292 263 291 286 278 266 266 256 254 257 258 256 258 259 261 259 270 282 286 290 295 295 294 318 327 297 311 284 291 303 316 294 201 201 202 202 199 196 195 189 186 186 194 181 198 208
296 305 295 295 288 278 262 259 250 253 263 253 258 257 260 245 257 278 280 282 294 294 298 296 299 322 312 323 312 319 327 215 181 165 170 221 215 203 188 190 187 188 189 191 196 200 207
293 295 301 285 290 248 265 257 260 249 248 255 254 258 259 262 266 274 282 282 298 308 298 310 300 326 310 309 309 332 276 209 294 176 164 114 140 160 179 187 187 184 188 187 194 193 209
302 293 296 250 259 261 248 260 260 246 250 252 252 256 259 264 265 278 277 282 317 306 294 299 334 311 307 304 333 338 335 29 302 155 134 135 162 167 181 185 182 180 186 188 187 194 207
295 284 272 253 256 240 248 240 250 243 252 239 251 253 254 264 270 278 268 293 299 290 280 325 307 313 301 297 318 345 339 340 126 128 135 142 154 174 180 179 179 179 185 189 193 191 187
293 277 268 258 252 243 240 239 243 216 237 231 244 252 253 262 271 276 272 290 293 292 294 322 340 303 308 323 312 341 16 103 125 141 141 162 148 171 181 175 176 179 183 182 187 195 205
298 287 274 260 243 228 232 229 210 227 226 228 204 248 252 260 270 273 279 288 292 297 294 310 297 302 305 350 325 2 356 75 96 103 103 116 124 132 164 169 175 177 181 187 197 203 205
302 292 276 260 246 218 219 228 218 226 203 240 241 240 254 245 252 246 283 293 285 297 293 3 337 309 284 347 4 57 70 65 99 109 106 108 140 150 177 171 174 179 181 185 196 200 205
307 297 293 277 264 190 205 212 219 211 192 184 210 223 250 244 256 244 277 279 290 297 304 302 307 341 357 345 2 26 86 78 73 122 114 130 135 165 173 175 176 180 184 188 194 200 205
303 302 296 284 266 219 206 207 198 184 192 180 226 205 250 242 223 246 280 299 294 297 297 331 329 316 308 343 343 332 25 28 67 82 141 157 163 168 131 167 180 188 184 192 198 202 200
320 25 336 292 251 206 206 194 199 170 164 174 235 193 216 221 220 240 258 290 285 288 333 293 325 326 52 301 330 31 34 67 32 24 79 104 132 153 160 173 183 186 194 202 206 209 212
43 38 30 339 204 176 163 182 162 159 172 203 179 230 235 207 190 231 251 285 297 276 321 282 325 327 325 279 305 10 350 22 26 18 73 104 132 156 172 182 184 188 195 201 206 212 216
2 141 188 184 179 172 177 161 157 165 169 201 222 223 202 211 240 232 253 278 284 303 319 280 341 334 351 348 336 299 41 8 57 3 35 97 111 146 176 183 186 191 202 207 209 214 218
198 206 205 171 170 171 174 151 158 172 182 184 221 185 204 184 223 256 259 280 276 263 276 268 350 324 338 325 1 33 299 333 59 27 357 89 112 139 160 177 195 200 200 205 206 211 216
187 132 135 195 175 154 166 155 172 167 196 201 214 194 206 204 244 261 245 249 279 311 336 272 286 316 323 326 318 329 334 348 59 17 55 36 47 92 162 179 192 199 206 210 219 225 224
158 152 138 150 155 163 159 154 171 181 164 205 183 197 200 192 227 264 255 249 272 329 274 288 345 285 309 356 325 343 3 342 346 343 14 19 32 63 121 182 193 202 207 214 220 224 227
187 142 153 147 141 144 168 180 170 173 184 201 180 196 210 212 203 203 222 242 271 333 276 342 295 270 322 24 320 315 5 350 20 340 357 53 43 358 65 99 210 212 210 217 224 229 234
145 181 142 144 152 155 171 157 176 183 193 194 196 195 209 212 237 231 233 291 264 302 335 288 309 309 360 352 349 309 332 348 295 360 328 356 339 42 49 41 291 267 295 242 236 231 232
175 149 139 155 153 170 157 187 174 203 204 199 193 198 202 202 240 246 224 274 262 308 334 301 309 318 285 6 8 11 307 309 6 354 336 341 24 38 40 43 340 314 288 262 251 249 243
165 166 147 154 172 163 195 177 186 199 206 180 204 202 196 195 218 223 222 249 281 244 250 309 325 336 341 280 321 293 142 303 358 344 29 350 7 15 25 18 35 2 353 304 300 260 256
200 189 167 179 167 164 185 165 198 198 176 187 192 213 202 200 224 227 227 246 266 255 300 324 337 313 327 319 355 352 293 314 354 306 6 19 13 20 13 21 26 359 26 13 27 320 271
167 161 175 176 166 177 176 178 205 197 176 202 203 203 195 206 220 226 231 234 247 269 305 317 316 303 336 293 322 350 274 286 279 0 322 316 10 336 10 7 6 315 344 7 22 23 11
206 199 171 183 168 190 176 188 211 213 180 212 187 190 200 210 218 219 225 239 233 262 277 290 310 331 335 336 339 339 255 274 317 345 8 293 13 333 13 9 16 353 332 8 341 12 294
179 172 170 172 185 187 177 184 204 206 185 216 186 194 203 210 216 219 222 234 238 266 264 275 303 319 307 314 322 316 336 345 296 335 353 358 326 11 10 4 335 357 2 318 9 5 7
188 164 186 176 192 172 169 201 212 204 194 218 191 199 205 210 228 222 223 234 244 212 221 250 294 316 280 319 332 336 333 330 340 340 321 340 334 312 11 7 358 351 338 5 356 6 4
180 166 184 183 193 171 190 181 200 182 210 205 197 204 212 209 209 221 220 223 230 254 213 293 304 307 311 320 335 339 276 333 337 332 268 285 334 358 306 328 360 354 2 11 1 5 3